{"data":{"norad_id":68898,"intl_designator":"2026-097D","name":"STARLINK-37386","alt_names":[],"object_type":"PAYLOAD","status":"ACTIVE","operator":null,"country":"US","launch_date":"2026-04-30","launch_site_code":"AFWTR","launch_vehicle":null,"mission":null,"orbit_class":"UNKNOWN","rcs_meters":null,"size_class":null,"mass_kg":null,"dimensions":null,"purposes":["comms"],"wikipedia_slug":null,"has_3d_model":false,"image_url":null,"decayed_at":null,"tle_current":{"epoch":"2026-05-25T01:42:55.734624Z","epoch_age_seconds":65217,"freshness":"FRESH","line1":"1 68898U 26097D   26145.07147841  .00028839  00000+0  52956-3 0  9992","line2":"2 68898  97.2854 340.7639 0001634  82.4729 277.6707 15.49211643  3931","mean_motion":15.49211643,"eccentricity":0.0001634,"inclination_deg":97.2854,"raan_deg":340.7639,"arg_perigee_deg":82.4729,"mean_anomaly_deg":277.6707,"bstar":0.00052956,"rev_number":393,"period_min":92.950502050932,"perigee_km":417.92037942232,"apogee_km":420.1416939367,"semimajor_km":6797.1680366795,"source":"CELESTRAK","updated_at":"2026-05-25T13:38:22.066642Z"}}}